sat.trackr.live / text

‹ back to catalog

STARLINK-34767

NORAD 66507 · 2025-263Y

PAYLOAD ACTIVE UNKNOWN

§ Identity

Operator
Country
US
Launch date
2025-11-15
Launch site
AFETR
Launch vehicle
Mass (kg)
RCS (m²)

Purposes: comms

External: N2YO · Heavens-Above · Gunter

§ Orbital elements

Epoch: 2026-05-24T18:48:08.233632Z

Period
94.27 min
Inclination
43.0006°
Eccentricity
0.0001100
Mean motion
15.27586350 rev/d
Perigee alt
482.3 km
Apogee alt
483.8 km
Semi-major
6,861.2 km
B*
5.7631e-4
RAAN
281.2060°
Arg perigee
260.6959°
Mean anomaly
99.3768°
Rev number
3,053

§ Raw data

STARLINK-347671 66507U 25263Y   26144.78342863  .00015633  00000+0  57631-3 0  99922 66507  43.0006 281.2060 0001100 260.6959  99.3768 15.27586350 30532

JSON: /api/v1/satellites/66507 · /tle

For live sub-satellite position, see the globe view (requires WebGL).

§ Visibility from observer

Set your observer location to see the next 7 days of passes ≥ 10°. The values pass through the URL so the page stays shareable.

No JS? Fill the form by hand. The geolocation button needs JavaScript.